Flag for U.S.A. Weather past 2 weeks in Miami, Florida, U.S.A.

78 °F

Scattered clouds.

Feels Like: 80 °F
Forecast: 71 / 79 °F
Wind: 12 mph from Northeast

Location: Miami International Airport

Current Time: Nov 29, 2015 at 5:00:16 PM

Latest Report: Nov 29, 2015 at 3:53 PM

Visibility: 10 mi

Pressure: 29.98 "Hg

Humidity: 64%

Dew point: 65 °F

Location of MiamiLocation

Historic Weather in Miami — Graph


Miami temperature yesterday

Maximum temperature yesterday: 81 °F (at 11:53 AM)
Minimum temperature yesterday: 68 °F (at 6:53 AM)
Average temperature yesterday: 74 °F

Past Weeks' High & Low Weather Summary

High85 °F (Nov 18, 10:53 AM)100% (Nov 15, 4:53 AM)30.28 "Hg (Nov 15, 4:53 AM)
Low63 °F (Nov 24, 1:53 AM)47% (Nov 24, 10:53 AM)29.80 "Hg (Nov 22, 2:53 PM)
Average76 °F77%30.06 "Hg
* Reported Nov 14 2:53 PM — Nov 29 2:53 PM, Miami, Weather by CustomWeather, © 2015

Note: Actual official high and low records may vary slightly from our data, if they occured in-between our weather recording intervals... More about our weather records


Miami weather history for previous 24 hours

Time TempWeatherWind HumidityBarometerVisibility
2:53 PM
Sun, Nov 29
79 °FBroken clouds.13 mph62%29.99 "Hg10 mi
1:53 PM79 °FBroken clouds.13 mph62%30.00 "Hg10 mi
12:53 PM79 °FBroken clouds.15 mph62%30.02 "Hg10 mi
11:53 AM79 °FBroken clouds.15 mph62%30.05 "Hg10 mi
10:53 AM78 °FScattered clouds.15 mph62%30.07 "Hg10 mi
9:53 AM77 °FPassing clouds.7 mph66%30.08 "Hg10 mi
8:53 AM72 °FPassing clouds.7 mph76%30.08 "Hg10 mi
7:53 AM68 °FPassing clouds.6 mph84%30.07 "Hg10 mi
6:53 AM66 °FPassing clouds.5 mph90%30.06 "Hg10 mi
5:53 AM66 °FPassing clouds.6 mph90%30.05 "Hg10 mi
4:53 AM66 °FPassing clouds.3 mph90%30.04 "Hg10 mi
3:53 AM67 °FPassing clouds.5 mph87%30.05 "Hg10 mi
2:53 AM68 °FPassing clouds.5 mph87%30.05 "Hg10 mi
1:53 AM69 °FPassing clouds.3 mph87%30.06 "Hg10 mi
12:53 AM70 °FPartly cloudy.6 mph84%30.06 "Hg10 mi
11:53 PM
Sat, Nov 28
70 °FPassing clouds.3 mph84%30.08 "Hg10 mi
10:53 PM70 °FPassing clouds.3 mph87%30.09 "Hg10 mi
9:53 PM74 °FPassing clouds.5 mph74%30.09 "Hg10 mi
8:53 PM75 °FPassing clouds.3 mph66%30.08 "Hg10 mi
7:53 PM76 °FPassing clouds.7 mph58%30.07 "Hg10 mi
5:53 PM75 °FPassing clouds.9 mph69%30.05 "Hg10 mi
Weather by CustomWeather, © 2015

See weather overviewHow to use our weather pages